Regional Weather Roundup
Issued by NWS

Home | Current Version | Previous Version | Graphics & Text | Print | Product List | Glossary On
Versions: 1 2 3 4 5 6 7 8 9 10 11 12 13 14 15 16 17 18 19 20 21 22 23 24 25 26 27 28 29 30 31 32 33 34 35 36 37 38 39 40 41 42 43 44 45 46 47 48 49 50
000
ASUS43 KLOT 270810
RWRIL

ILLINOIS REGIONAL WEATHER ROUNDUP
NATIONAL WEATHER SERVICE CHICAGO/ROMEOVILLE IL
300 AM CDT WED AUG 27 2014

NOTE: "FAIR" INDICATES FEW OR NO CLOUDS BELOW 12,000 FEET WITH NO
SIGNIFICANT WEATHER AND/OR OBSTRUCTIONS TO VISIBILITY.

* THESE STATIONS ARE NOT UNDER NWS QUALITY CONTROL. THEY ALSO MAY NOT
  REPORT WEATHER SUCH AS PRECIPITATION OR FOG.

ILZ001-002-007-009-015-016-024-270900-
NORTHWEST ILLINOIS

CITY           SKY/WX    TMP DP  RH WIND       PRES   REMARKS
MOLINE         CLOUDY    72  65  78 CALM      30.12F
STERLING*      CLOUDY    70  64  83 N5        30.14R
SAVANNA*       CLOUDY    67  63  85 N3        30.15R
$$

ILZ003-004-008-010-011-017-018-270900-
NORTH CENTRAL ILLINOIS

CITY           SKY/WX    TMP DP  RH WIND       PRES   REMARKS
ROCKFORD       CLOUDY    68  59  73 NE8       30.15R
FREEPORT*      CLOUDY    64  61  91 CALM      30.17S
ROCHELLE*      CLOUDY    67  63  85 CALM      30.14S
DE KALB*       MOCLDY    64  61  91 N3        30.14S
PERU*          CLOUDY    70  66  88 N5        30.12S
$$

ILZ005-006-012>014-019>023-270900-
NORTHEAST ILLINOIS

CITY           SKY/WX    TMP DP  RH WIND       PRES   REMARKS
CHICAGO-OHARE  MOCLDY    71  63  75 N3        30.11S
CHICAGO-MIDWAY MOCLDY    73  66  78 N5        30.11R
AURORA         CLOUDY    68  64  87 N6        30.12S
LANSING*       CLOUDY    69  68  94 NE3       30.11S
JOLIET*        MOCLDY    70  66  88 CALM      30.12R
WAUKEGAN       MOCLDY    65  61  87 N3        30.13R
DUPAGE AIRPORT MOCLDY    68  64  87 N7        30.12S
KANKAKEE*      MOCLDY    71  67  87 NE6       30.10F
WHEELING       MOCLDY    68  65  90 N5        30.13S
MORRIS*        CLOUDY    70  69  98 CALM      30.10S
ROMEOVILLE*    CLOUDY    69  67  91 NE6       30.11S
NORTHERLY ISL    N/A     71  64  78 N5          N/A
$$

LMZ740>746-270900-
SOUTHERN LAKE MICHIGAN

STATION/POSITION SKY/WX   TEMP    WIND        PRES    VSBY  WAVE
                          AIR SEA DIR/SP/G                  HT/PER
                          (F)     (DEG/KT/KT) (MB)    (MI)  (FT/S)
SOUTHERN BUOY              68 69   CALM  /  2 1020.0R         1
WAUKEGAN HARBOR            67     330/  4/  5   N/A
HARRISON CRIB              71      20/  7/  9   N/A
BURNHAM HARBOR             71      20/  7       N/A
CALUMET HARBOR             71      20/  5/  7 1018.3S
MICHIGAN CITY              68      70/  7/  9   N/A
MICHIGAN CITY 6N           70 72   80/  8/ 10   N/A           1/ 3
$$

ILZ025>027-034>036-040-047-049-050-058-095>099-270900-
WEST-CENTRAL ILLINOIS

CITY           SKY/WX    TMP DP  RH WIND       PRES   REMARKS
QUINCY         PTCLDY    72  69  90 N5        30.10S
GALESBURG*     MOCLDY    70  68  93 NW5       30.13R
MACOMB*        CLOUDY    71  69  93 N5        30.13S
JACKSONVILLE*  MOCLDY    72  69  92 W5        30.09F
PITTSFIELD*    PTCLDY    73  68  84 CALM      30.09F
$$

ILZ028>032-037-038-041>044-048-051>054-059>061-270900-
CENTRAL ILLINOIS

CITY           SKY/WX    TMP DP  RH WIND       PRES   REMARKS
PONTIAC        PTCLDY    72  72 100 NE7       30.09S
DECATUR        PTCLDY    68  66  93 SE5       30.10R
PEORIA         MOCLDY    75  67  76 NE6       30.11R
LACON*         MOCLDY    70  66  85 CALM      30.10S
LINCOLN*       CLEAR     71  68  90 E3        30.07R
SPRINGFIELD    PTCLDY    72  65  78 W6        30.08S
TAYLORVILLE    MOCLDY    68  64  88 CALM      30.09R
$$

ILZ033-039-045-046-055>057-062-063-270900-
EAST-CENTRAL ILLINOIS

CITY           SKY/WX    TMP DP  RH WIND       PRES   REMARKS
CHAMPAIGN      MOCLDY    68  65  90 NW5       30.09F
DANVILLE*      HVY RAIN  67  67  99 CALM      30.07S
RANTOUL*       MOCLDY    68  65  90 SW3       30.10S
MATTOON        CLOUDY    71  69  93 N3        30.08S
PARIS*         CLOUDY    70  70 100 CALM      30.10S FOG
$$

ILZ079-100>102-270900-
SOUTHWEST ILLINOIS

CITY           SKY/WX    TMP DP  RH WIND       PRES   REMARKS
BELLEVILLE     PTCLDY    72  70  95 VRB1      30.06F
SPARTA*        CLEAR     73  72  96 CALM      30.08F
$$

ILZ064>066-069>071-074>076-080>082-084>086-088>090-092>094-270900-
SOUTH-CENTRAL ILLINOIS

CITY           SKY/WX    TMP DP  RH WIND       PRES   REMARKS
CARBONDALE     CLEAR     73  71  93 CALM      30.07S FOG
CAIRO*         FOG       74  71  91 CALM      30.06S VSB 1
EFFINGHAM*     RAIN      73  67  82 CALM      30.08R
MARION         FOG       75  73  94 CALM      30.07F VSB 1
MT. VERNON     CLEAR     73  70  88 CALM      30.07S
SALEM*         PTCLDY    73  70  92 CALM      30.07F
METROPOLIS*    CLEAR     73  72  96 CALM      30.06S FOG
$$

ILZ067-068-072-073-078-083-087-091-270900-
SOUTHEAST ILLINOIS

CITY           SKY/WX    TMP DP  RH WIND       PRES   REMARKS
LAWRENCEVILLE  MOCLDY    73  72  96 CALM      30.06F FOG
FLORA*         MOCLDY    70  69  97 NW5       30.07S FOG
FAIRFIELD*     MOCLDY    75  73  94 CALM      30.06S FOG
HARRISBURG*    CLEAR     72  72 100 CALM      30.07F FOG
ROBINSON*      CLOUDY    73  72  97 N6        30.09R
CARMI*         CLEAR     73  73 100 CALM      30.06S FOG
$$

ABBREVIATIONS USED IN REMARKS
   TC - TEMPERATURE IN CELSIUS
  WCI - WIND CHILL INDEX
   HX - HEAT INDEX
  VSB - VISIBILITY
$$




USA.gov is the U.S. government's official web portal to all federal, state and local government web resources and services.